Starlink 5737

operational
NORAD ID: 55570 Int'l Des: 2023-020 Owner: SPXS Country: US Constellation: starlink
LEOCIRCULAR

Starlink 5737について

説明を読み込み中...

リアルタイム位置

3D地球を読み込み中...

次回通過

高度履歴

Altitude vs Time

uPlot chart will show altitude changes over time

軌道要素

1 55570U 23020B 26035.44352396 .00000422 00000-0 46276-4 0 9998
2 55570 43.0022 185.6832 0001198 274.8723 85.1983 15.02533712163913
Epoch: Feb 4, 2026 • Age: 13 hours

現在のステータス

高度 559.1 km
速度 7.59 km/s
衛星直下点 21.73°N, 158.58°W
打ち上げ日 Feb 12, 2023
運用期間 2.9 years
タイプ internet

技術仕様

分類 Payload
質量 305.00 kg
乾燥質量 290.00 kg
総質量 305.00 kg
長さ 0.20 m
直径 2.80 m
スパン 9.00 m
形状 Box + pan
製造者 SPXS
バスタイプ Starlink
フェーズステータス In Orbit
所有者/国 SPXS/US

大規模コンステレーション

Loading constellations...